Weather in Ferapontovo

Russia / Vologda Oblast     59°57′15″N   38°34′13″E
temp.,
°C
wind,
m/s
gust,
m/s
humid.,
%
clouds,
%
prec.,
mm/h
press.,
hPa
HPBL,
m
15 may, sat
sat1500:00+11se22868 0.0 101414
03:00+10e22968 0.0 101443
06:00+13e2591100 0.0 1012162
09:00+18ese356991 0.0 1011688
12:00+21ese4556100 0.0 10101134
15:00+22se465740 0.0 10071410
18:00+17sse51088100 3.0 1006469
21:00+15se3997100 4.4 1005393
16 may, sun
sun1600:00+14s3996100 2.4 1004302
03:00+12s3119660 2.6 1004295
06:00+13ssw412956 0.0 1005453
09:00+17ssw587756 0.0 1006892
12:00+17ssw587649 0.9 10061241
15:00+18sw597490 3.1 10061180
18:00+16wsw4988100 2.7 1007832
21:00+11wnw4109638 3.1 1010546
17 may, mon
mon1700:00+9w289927 0.0 1013219
03:00+9wnw129812 0.0 101428
06:00+11sw12915 0.0 101590
09:00+16ssw23710 0.0 1017530
12:00+20s23545 0.0 10171318
15:00+21sse3350100 0.0 10161593
18:00+20se2466100 0.0 1016358
21:00+15ese288598 0.0 1016180
18 may, tue
tue1800:00+14ese31185100 0.0 1015247
03:00+13ese41285100 0.1 1015308
06:00+14ese41388100 0.3 1014403
09:00+20se51170100 0.3 1013524
12:00+24se61055100 0.0 1012929
15:00+26se6125089 0.0 10111478
18:00+24se6125112 0.0 10101343
21:00+19se4157118 0.0 1010587
19 may, wed
wed1900:00+17se414785 0.0 1009429
03:00+15ese413812 0.0 1008375
06:00+17se515776 0.0 1007519
09:00+21sse5126186 0.0 1006903
12:00+25sse6164940 0.0 10061911
15:00+25sse6164993 0.1 10062548
18:00+19s616745 1.8 10051315
21:00+17sse3977100 1.9 1004480